Flag for Germany Weather past 2 weeks in Kamp-Lintfort, North Rhine-Westphalia, Germany

Now
89 °F

Scattered clouds.


Feels Like: 91 °F
Forecast: 65 / 86 °F
Wind: 6 mph from South

Location: Duesseldorf

Current Time: Jul 4, 2015 at 12:15:14 PM

Latest Report: Jul 4, 2015 at 11:00 AM


Visibility: 16 mi

Pressure: 30.05 "Hg

Humidity: 46%

Dew point: 65 °F

Location of Kamp-LintfortLocation

Historic Weather in Kamp-Lintfort — Graph

°F

Kamp-Lintfort temperature yesterday

Maximum temperature yesterday: 90 °F (at 6:00 PM)
Minimum temperature yesterday: 68 °F (at 7:00 AM)
Average temperature yesterday: 80 °F

Past Weeks' High & Low Weather Summary

 TemperatureHumidityPressure
High98 °F (Jul 2, 4:00 PM)98% (Jun 22, 10:00 PM)30.25 "Hg (Jun 22, 10:00 PM)
Low49 °F (Jun 23, 4:00 AM)26% (Jul 1, 6:00 PM)29.72 "Hg (Jun 22, 8:00 PM)
Average67 °F66%30.07 "Hg
* Reported Jun 19 12:00 Noon — Jul 4 11:00 AM, Kamp-Lintfort, Weather by CustomWeather, © 2015

Note: Actual official high and low records may vary slightly from our data, if they occured in-between our weather recording intervals... More about our weather records

Advertising

Kamp-Lintfort weather history for previous 24 hours

 ConditionsComfort  
Time TempWeatherWind HumidityBarometerVisibility
11:00 AM
Sat, Jul 4
89 °FScattered clouds.6 mph46%30.05 "Hg16 mi
10:00 AM87 °FScattered clouds.7 mph49%30.04 "Hg16 mi
9:00 AM85 °FScattered clouds.7 mph52%30.04 "Hg16 mi
8:00 AM80 °FScattered clouds.2 mph68%30.04 "Hg12 mi
7:00 AM72 °FPartly sunny.1 mph84%30.05 "Hg12 mi
6:00 AM71 °FPartly sunny.1 mph86%30.06 "Hg9 mi
4:00 AM72 °FPassing clouds.1 mph83%30.09 "Hg16 mi
3:00 AM74 °FPassing clouds.1 mph78%30.10 "Hg16 mi
2:00 AM75 °FPassing clouds.2 mph75%30.13 "Hg16 mi
1:00 AM78 °FPassing clouds.3 mph69%30.14 "Hg16 mi
12:00 AM79 °FPassing clouds.5 mph67%30.15 "Hg12 mi
10:00 PM
Fri, Jul 3
83 °FPassing clouds.3 mph60%30.16 "Hg12 mi
9:00 PM85 °FPassing clouds.3 mph55%30.16 "Hg12 mi
8:00 PM88 °FPassing clouds.3 mph49%30.16 "Hg17 mi
7:00 PM90 °FPassing clouds.3 mph45%30.16 "Hg16 mi
6:00 PM90 °FPassing clouds.2 mph45%30.16 "Hg16 mi
4:00 PM89 °FScattered clouds.2 mph46%30.19 "Hg16 mi
3:00 PM87 °FPassing clouds.3 mph48%30.20 "Hg17 mi
2:00 PM85 °FSunny.2 mph50%30.21 "Hg17 mi
1:00 PM84 °FSunny.3 mph55%30.22 "Hg19 mi
12:00 PM81 °FSunny.1 mph58%30.23 "Hg22 mi
Weather by CustomWeather, © 2015

See weather overviewHow to use our weather pages